AFL694 LTAC-UGTB

Flight info

Callsign AFL694
Flight time 1h 26m
Altitude 39000
Route GOBIT UL614 JUPNE UT54 SIV DCT GONPU UN61 NOLGA N61 LAGAS
Aircraft A20N/M-SDE2E3FGHIRWXY/LB1

Departure

Time 2026-04-28 20:37
Airport Esenboğa International Airport (LTAC)

Arrival

Time 2026-04-28 22:03
Airport Tbilisi International Airport (UGTB)
Time Latitude Longitude Altitude Speed Heading
2026-04-28 20:22 40.11717 32.99565 3119 ft 0 kts 174°
2026-04-28 20:23 40.11725 32.99564 3119 ft 3 kts 174°
2026-04-28 20:23 40.11750 32.99561 3119 ft 6 kts 174°
2026-04-28 20:23 40.11785 32.99576 3120 ft 5 kts 256°
2026-04-28 20:23 40.11786 32.99583 3119 ft 0 kts 261°
2026-04-28 20:25 40.11785 32.99578 3119 ft 2 kts 261°
2026-04-28 20:25 40.11783 32.99539 3118 ft 8 kts 270°
2026-04-28 20:25 40.11776 32.99410 3117 ft 21 kts 259°
2026-04-28 20:25 40.11720 32.99186 3115 ft 31 kts 252°
2026-04-28 20:26 40.11682 32.99085 3114 ft 0 kts 240°
2026-04-28 20:26 40.11650 32.99023 3114 ft 20 kts 233°
2026-04-28 20:26 40.11530 32.98877 3112 ft 27 kts 220°
2026-04-28 20:26 40.11374 32.98723 3111 ft 29 kts 216°
2026-04-28 20:27 40.11273 32.98580 3110 ft 17 kts 294°
2026-04-28 20:27 40.11305 32.98520 3109 ft 0 kts 306°
2026-04-28 20:28 40.11319 32.98496 3109 ft 7 kts 307°
2026-04-28 20:28 40.11334 32.98470 3108 ft 0 kts 307°
2026-04-28 20:30 40.11348 32.98445 3108 ft 7 kts 307°
2026-04-28 20:30 40.11353 32.98436 3108 ft 0 kts 307°
2026-04-28 20:31 40.11357 32.98430 3107 ft 0 kts 307°
2026-04-28 20:32 40.11367 32.98413 3107 ft 7 kts 308°
2026-04-28 20:32 40.11426 32.98313 3106 ft 20 kts 304°
2026-04-28 20:32 40.11464 32.98241 3108 ft 0 kts 304°
2026-04-28 20:33 40.11472 32.98225 3108 ft 5 kts 305°
2026-04-28 20:34 40.11510 32.98172 3109 ft 11 kts 328°
2026-04-28 20:34 40.11594 32.98190 3111 ft 15 kts 33°
2026-04-28 20:34 40.11694 32.98286 3112 ft 20 kts 37°
2026-04-28 20:34 40.11811 32.98401 3114 ft 21 kts 36°
2026-04-28 20:35 40.11843 32.98433 3115 ft 0 kts 37°
2026-04-28 20:36 40.11991 32.98569 3117 ft 69 kts 34°
2026-04-28 20:36 40.12610 32.99156 3120 ft 146 kts 36°
2026-04-28 20:36 40.13590 33.00071 3288 ft 195 kts 36°
2026-04-28 20:37 40.14677 33.01163 4238 ft 196 kts 39°
2026-04-28 20:37 40.15796 33.02402 5090 ft 218 kts 40°
2026-04-28 20:37 40.17011 33.03747 5707 ft 240 kts 39°
2026-04-28 20:37 40.18348 33.05184 6421 ft 255 kts 38°
2026-04-28 20:38 40.19702 33.06711 7351 ft 259 kts 49°
2026-04-28 20:38 40.20548 33.08805 8222 ft 267 kts 77°
2026-04-28 20:38 40.20569 33.11204 9095 ft 272 kts 105°
2026-04-28 20:38 40.19754 33.13435 9981 ft 276 kts 128°
2026-04-28 20:39 40.18493 33.15460 10464 ft 298 kts 134°
2026-04-28 20:39 40.17045 33.17539 10872 ft 321 kts 134°
2026-04-28 20:39 40.15501 33.19804 11240 ft 344 kts 132°
2026-04-28 20:39 40.13931 33.22230 11953 ft 353 kts 130°
2026-04-28 20:40 40.12370 33.24741 12668 ft 358 kts 129°
2026-04-28 20:40 40.10813 33.27304 12952 ft 361 kts 129°
2026-04-28 20:40 40.09259 33.29889 13033 ft 362 kts 129°
2026-04-28 20:40 40.07711 33.32470 13036 ft 361 kts 129°
2026-04-28 20:41 40.06160 33.35055 13035 ft 362 kts 129°
2026-04-28 20:41 40.04610 33.37631 13029 ft 361 kts 129°
2026-04-28 20:41 40.03053 33.40213 13028 ft 362 kts 128°
2026-04-28 20:41 40.01502 33.42806 13029 ft 361 kts 126°
2026-04-28 20:42 40.00093 33.45545 13250 ft 367 kts 123°
2026-04-28 20:42 39.98687 33.48350 14100 ft 369 kts 123°
2026-04-28 20:42 39.97271 33.51151 14913 ft 372 kts 124°
2026-04-28 20:42 39.95820 33.53983 15669 ft 377 kts 124°
2026-04-28 20:43 39.94342 33.56836 16442 ft 381 kts 124°
2026-04-28 20:43 39.92842 33.59711 17185 ft 385 kts 124°
2026-04-28 20:43 39.91348 33.62565 17914 ft 389 kts 124°
2026-04-28 20:43 39.89809 33.65500 18616 ft 393 kts 124°
2026-04-28 20:44 39.88259 33.68455 19276 ft 396 kts 124°
2026-04-28 20:44 39.86699 33.71430 19916 ft 400 kts 124°
2026-04-28 20:44 39.85121 33.74438 20568 ft 403 kts 124°
2026-04-28 20:44 39.83531 33.77469 21191 ft 407 kts 124°
2026-04-28 20:45 39.81924 33.80530 21810 ft 411 kts 124°
2026-04-28 20:45 39.80304 33.83613 22433 ft 415 kts 124°
2026-04-28 20:45 39.78675 33.86739 23040 ft 419 kts 122°
2026-04-28 20:45 39.77268 33.90019 23613 ft 423 kts 115°
2026-04-28 20:46 39.76150 33.93623 24119 ft 427 kts 109°
2026-04-28 20:46 39.75158 33.97217 24627 ft 429 kts 109°
2026-04-28 20:46 39.74153 34.00892 25120 ft 433 kts 109°
2026-04-28 20:46 39.73133 34.04586 25622 ft 436 kts 109°
2026-04-28 20:47 39.72095 34.08299 26090 ft 439 kts 110°
2026-04-28 20:47 39.71042 34.12033 26567 ft 442 kts 110°
2026-04-28 20:47 39.69973 34.15796 27023 ft 445 kts 110°
2026-04-28 20:47 39.68894 34.19581 27466 ft 448 kts 110°
2026-04-28 20:48 39.67805 34.23390 27896 ft 451 kts 110°
2026-04-28 20:48 39.66707 34.27229 28314 ft 454 kts 110°
2026-04-28 20:48 39.65603 34.31081 28711 ft 457 kts 111°
2026-04-28 20:48 39.64491 34.34961 29105 ft 460 kts 110°
2026-04-28 20:49 39.63604 34.38963 29473 ft 464 kts 101°
2026-04-28 20:49 39.63254 34.43136 29830 ft 467 kts 91°
2026-04-28 20:49 39.63441 34.47348 30176 ft 470 kts 82°
2026-04-28 20:49 39.63874 34.51559 30498 ft 473 kts 82°
2026-04-28 20:50 39.64310 34.55797 30824 ft 475 kts 82°
2026-04-28 20:50 39.64725 34.60060 31155 ft 477 kts 83°
2026-04-28 20:50 39.65123 34.64337 31559 ft 478 kts 83°
2026-04-28 20:50 39.65508 34.68617 31984 ft 477 kts 84°
2026-04-28 20:51 39.65886 34.72885 32417 ft 477 kts 84°
2026-04-28 20:51 39.66263 34.77166 32842 ft 476 kts 84°
2026-04-28 20:51 39.66638 34.81441 33240 ft 476 kts 84°
2026-04-28 20:51 39.66886 34.84264 33507 ft 476 kts 84°
2026-04-28 20:52 39.67384 34.89972 34026 ft 475 kts 84°
2026-04-28 20:52 39.67749 34.94168 34336 ft 475 kts 84°
2026-04-28 20:52 39.68124 34.98492 34635 ft 475 kts 84°
2026-04-28 20:52 39.68492 35.02748 34918 ft 475 kts 84°
2026-04-28 20:53 39.69224 35.11276 35151 ft 484 kts 84°
2026-04-28 20:53 39.69599 35.15665 35338 ft 486 kts 84°
2026-04-28 20:53 39.69972 35.20035 35531 ft 487 kts 84°
2026-04-28 20:54 39.70343 35.24419 35704 ft 489 kts 85°
2026-04-28 20:54 39.70714 35.28812 35852 ft 491 kts 85°
2026-04-28 20:54 39.71086 35.33225 35980 ft 492 kts 85°
2026-04-28 20:54 39.71457 35.37656 36123 ft 494 kts 85°
2026-04-28 20:55 39.71829 35.42103 36245 ft 495 kts 85°
2026-04-28 20:55 39.72199 35.46554 36355 ft 496 kts 85°
2026-04-28 20:55 39.72567 35.51020 36461 ft 497 kts 85°
2026-04-28 20:55 39.72935 35.55495 36559 ft 498 kts 85°
2026-04-28 20:56 39.73304 35.59975 36669 ft 499 kts 85°
2026-04-28 20:56 39.73669 35.64459 36766 ft 499 kts 85°
2026-04-28 20:56 39.74028 35.68888 36884 ft 499 kts 85°
2026-04-28 20:56 39.74390 35.73373 37000 ft 499 kts 85°
2026-04-28 20:57 39.74751 35.77862 37110 ft 500 kts 85°
2026-04-28 20:57 39.75112 35.82370 37647 ft 489 kts 85°
2026-04-28 20:57 39.75458 35.86714 38338 ft 479 kts 85°
2026-04-28 20:57 39.75792 35.90958 38657 ft 477 kts 85°
2026-04-28 20:58 39.76127 35.95240 38835 ft 477 kts 85°
2026-04-28 20:58 39.76463 35.99531 38951 ft 477 kts 85°
2026-04-28 20:58 39.77132 36.08130 39065 ft 478 kts 86°
2026-04-28 20:59 39.77795 36.16732 39059 ft 478 kts 86°
2026-04-28 20:59 39.78384 36.25342 39060 ft 478 kts 90°
2026-04-28 21:00 39.78443 36.33980 39057 ft 478 kts 91°
2026-04-28 21:00 39.78501 36.42630 39069 ft 477 kts 91°
2026-04-28 21:01 39.78584 36.51244 39076 ft 477 kts 91°
2026-04-28 21:01 39.78674 36.59913 39079 ft 483 kts 91°
2026-04-28 21:02 39.78755 36.68667 39087 ft 490 kts 91°
2026-04-28 21:02 39.78830 36.77566 39103 ft 493 kts 91°
2026-04-28 21:03 39.79050 36.86523 39108 ft 493 kts 84°
2026-04-28 21:03 39.80714 36.95156 39102 ft 494 kts 68°
2026-04-28 21:04 39.83447 37.03346 39100 ft 494 kts 66°
2026-04-28 21:04 39.86174 37.11545 39095 ft 495 kts 66°
2026-04-28 21:05 39.88866 37.19788 39076 ft 494 kts 67°
2026-04-28 21:05 39.91538 37.28046 39057 ft 494 kts 67°
2026-04-28 21:06 39.94201 37.36312 39048 ft 495 kts 67°
2026-04-28 21:06 39.96414 37.43196 39042 ft 495 kts 67°
2026-04-28 21:07 39.99066 37.51472 39042 ft 495 kts 68°
2026-04-28 21:07 40.02138 37.61093 39053 ft 495 kts 68°
2026-04-28 21:08 40.04782 37.69402 39061 ft 494 kts 68°
2026-04-28 21:08 40.07413 37.77694 39050 ft 495 kts 68°
2026-04-28 21:09 40.09616 37.84654 39046 ft 495 kts 68°
2026-04-28 21:09 40.12226 37.92926 39047 ft 495 kts 68°
2026-04-28 21:10 40.14846 38.01253 39056 ft 495 kts 68°
2026-04-28 21:10 40.17461 38.09590 39043 ft 496 kts 68°
2026-04-28 21:11 40.20069 38.17931 39043 ft 496 kts 68°
2026-04-28 21:11 40.22674 38.26289 39039 ft 496 kts 68°
2026-04-28 21:12 40.25276 38.34659 39052 ft 496 kts 69°
2026-04-28 21:12 40.27868 38.43027 39056 ft 496 kts 69°
2026-04-28 21:13 40.30462 38.51424 39050 ft 496 kts 69°
2026-04-28 21:13 40.33026 38.59751 39041 ft 496 kts 69°
2026-04-28 21:14 40.35605 38.68154 39037 ft 496 kts 69°
2026-04-28 21:14 40.38175 38.76552 39049 ft 496 kts 69°
2026-04-28 21:15 40.40735 38.84944 39055 ft 489 kts 69°
2026-04-28 21:15 40.43215 38.93093 39056 ft 478 kts 69°
2026-04-28 21:16 40.45691 39.01264 39044 ft 482 kts 69°
2026-04-28 21:16 40.48160 39.09433 39046 ft 482 kts 69°
2026-04-28 21:17 40.50627 39.17620 39045 ft 482 kts 70°
2026-04-28 21:17 40.53074 39.25764 39066 ft 482 kts 70°
2026-04-28 21:18 40.55531 39.33968 39065 ft 482 kts 70°
2026-04-28 21:18 40.57987 39.42194 39067 ft 482 kts 70°
2026-04-28 21:19 40.60430 39.50409 39071 ft 482 kts 70°
2026-04-28 21:19 40.62872 39.58639 39077 ft 482 kts 70°
2026-04-28 21:20 40.65308 39.66872 39092 ft 481 kts 70°
2026-04-28 21:20 40.67725 39.75066 39100 ft 481 kts 70°
2026-04-28 21:21 40.70139 39.83283 39094 ft 480 kts 70°
2026-04-28 21:21 40.72543 39.91488 39100 ft 481 kts 70°
2026-04-28 21:22 40.74945 39.99710 39118 ft 480 kts 71°
2026-04-28 21:22 40.76940 40.06560 39114 ft 480 kts 71°
2026-04-28 21:23 40.79718 40.16128 39106 ft 479 kts 71°
2026-04-28 21:23 40.82102 40.24371 39105 ft 481 kts 71°
2026-04-28 21:24 40.84478 40.32609 39119 ft 481 kts 71°
2026-04-28 21:24 40.86856 40.40880 39114 ft 480 kts 71°
2026-04-28 21:25 40.89222 40.49138 39103 ft 481 kts 71°
2026-04-28 21:25 40.91591 40.57433 39116 ft 483 kts 71°
2026-04-28 21:26 40.93948 40.65710 39108 ft 483 kts 71°
2026-04-28 21:26 40.96311 40.74038 39099 ft 483 kts 71°
2026-04-28 21:27 40.98666 40.82359 39106 ft 483 kts 71°
2026-04-28 21:27 41.01017 40.90698 39116 ft 483 kts 71°
2026-04-28 21:28 41.03370 40.99067 39103 ft 483 kts 71°
2026-04-28 21:28 41.05709 41.07422 39109 ft 483 kts 72°
2026-04-28 21:29 41.08031 41.15736 39098 ft 484 kts 72°
2026-04-28 21:29 41.10359 41.24102 39104 ft 483 kts 72°
2026-04-28 21:30 41.12680 41.32472 39103 ft 483 kts 72°
2026-04-28 21:30 41.14991 41.40829 39113 ft 484 kts 72°
2026-04-28 21:31 41.17302 41.49209 39116 ft 482 kts 72°
2026-04-28 21:31 41.19606 41.57601 39107 ft 484 kts 72°
2026-04-28 21:32 41.21908 41.66013 39119 ft 483 kts 72°
2026-04-28 21:32 41.24191 41.74377 39114 ft 478 kts 72°
2026-04-28 21:33 41.26443 41.82644 39123 ft 477 kts 72°
2026-04-28 21:33 41.28699 41.90952 39115 ft 478 kts 72°
2026-04-28 21:34 41.30516 41.99363 39112 ft 469 kts 83°
2026-04-28 21:34 41.31550 42.07923 39107 ft 469 kts 84°
2026-04-28 21:35 41.32623 42.16488 39096 ft 470 kts 83°
2026-04-28 21:35 41.33715 42.25014 39090 ft 471 kts 83°
2026-04-28 21:36 41.34804 42.33483 39074 ft 452 kts 83°
2026-04-28 21:36 41.35849 42.41677 39081 ft 452 kts 83°
2026-04-28 21:37 41.36891 42.49954 39083 ft 452 kts 83°
2026-04-28 21:37 41.37935 42.58310 39084 ft 461 kts 83°
2026-04-28 21:38 41.38989 42.66795 39075 ft 467 kts 83°
2026-04-28 21:38 41.39516 42.71060 38917 ft 465 kts 83°
2026-04-28 21:38 41.40040 42.75305 38425 ft 466 kts 83°
2026-04-28 21:39 41.40563 42.79573 37681 ft 468 kts 83°
2026-04-28 21:39 41.41089 42.83880 36882 ft 474 kts 83°
2026-04-28 21:39 41.41620 42.88248 36005 ft 479 kts 83°
2026-04-28 21:39 41.42151 42.92640 35145 ft 483 kts 83°
2026-04-28 21:40 41.42689 42.97094 34210 ft 490 kts 83°
2026-04-28 21:40 41.43229 43.01580 33231 ft 492 kts 83°
2026-04-28 21:40 41.43768 43.06073 32354 ft 490 kts 83°
2026-04-28 21:40 41.44306 43.10561 31468 ft 490 kts 83°
2026-04-28 21:41 41.44841 43.15042 30585 ft 489 kts 83°
2026-04-28 21:41 41.45374 43.19518 29584 ft 489 kts 83°
2026-04-28 21:41 41.45904 43.23991 28703 ft 486 kts 83°
2026-04-28 21:41 41.46425 43.28406 27977 ft 480 kts 83°
2026-04-28 21:42 41.46937 43.32766 27270 ft 474 kts 83°
2026-04-28 21:42 41.47445 43.37098 26551 ft 469 kts 83°
2026-04-28 21:42 41.47944 43.41374 25861 ft 464 kts 82°
2026-04-28 21:42 41.48435 43.45599 25246 ft 458 kts 82°
2026-04-28 21:43 41.48918 43.49759 24907 ft 446 kts 82°
2026-04-28 21:43 41.49385 43.53784 24620 ft 433 kts 82°
2026-04-28 21:43 41.49842 43.57742 24007 ft 431 kts 82°
2026-04-28 21:43 41.50292 43.61666 23399 ft 427 kts 82°
2026-04-28 21:44 41.50737 43.65547 22860 ft 421 kts 82°
2026-04-28 21:44 41.51176 43.69380 22290 ft 415 kts 82°
2026-04-28 21:44 41.51608 43.73166 21738 ft 410 kts 82°
2026-04-28 21:44 41.52034 43.76908 21182 ft 405 kts 82°
2026-04-28 21:45 41.52453 43.80595 20631 ft 400 kts 82°
2026-04-28 21:45 41.52868 43.84259 20084 ft 396 kts 82°
2026-04-28 21:45 41.53277 43.87869 19542 ft 392 kts 82°
2026-04-28 21:45 41.53680 43.91441 19002 ft 388 kts 82°
2026-04-28 21:46 41.54081 43.95006 18462 ft 385 kts 82°
2026-04-28 21:46 41.54473 43.98520 17874 ft 380 kts 82°
2026-04-28 21:46 41.54859 44.01986 17358 ft 375 kts 82°
2026-04-28 21:46 41.55238 44.05408 16839 ft 370 kts 82°
2026-04-28 21:47 41.55607 44.08749 16325 ft 366 kts 82°
2026-04-28 21:47 41.55975 44.12089 15816 ft 362 kts 82°
2026-04-28 21:47 41.56339 44.15392 15307 ft 358 kts 82°
2026-04-28 21:47 41.56699 44.18677 14804 ft 355 kts 82°
2026-04-28 21:48 41.57364 44.21817 14296 ft 352 kts 63°
2026-04-28 21:48 41.58793 44.24435 13793 ft 349 kts 43°
2026-04-28 21:48 41.60728 44.26333 13281 ft 345 kts 33°
2026-04-28 21:48 41.62737 44.28074 12814 ft 341 kts 33°
2026-04-28 21:49 41.64051 44.29216 12487 ft 339 kts 34°
2026-04-28 21:49 41.66006 44.30941 12010 ft 335 kts 35°
2026-04-28 21:49 41.67942 44.32680 11342 ft 338 kts 35°
2026-04-28 21:49 41.69870 44.34428 11068 ft 329 kts 36°
2026-04-28 21:50 41.71723 44.36118 10931 ft 315 kts 36°
2026-04-28 21:50 41.73491 44.37734 10813 ft 301 kts 37°
2026-04-28 21:50 41.75175 44.39276 10709 ft 288 kts 37°
2026-04-28 21:50 41.76800 44.40764 10583 ft 276 kts 37°
2026-04-28 21:51 41.78370 44.42205 10333 ft 271 kts 37°
2026-04-28 21:51 41.79911 44.43622 10090 ft 266 kts 37°
2026-04-28 21:51 41.81437 44.45020 9982 ft 263 kts 37°
2026-04-28 21:51 41.82968 44.46431 9979 ft 266 kts 38°
2026-04-28 21:52 41.84347 44.48003 9866 ft 262 kts 49°
2026-04-28 21:52 41.85596 44.49807 9448 ft 265 kts 50°
2026-04-28 21:52 41.86845 44.51626 9084 ft 265 kts 50°
2026-04-28 21:52 41.88120 44.53455 8683 ft 264 kts 49°
2026-04-28 21:53 41.89383 44.55242 8351 ft 263 kts 49°
2026-04-28 21:53 41.90627 44.56987 8001 ft 261 kts 49°
2026-04-28 21:53 41.91833 44.58795 7653 ft 258 kts 60°
2026-04-28 21:53 41.92397 44.61029 7264 ft 253 kts 89°
2026-04-28 21:54 41.92041 44.63275 7046 ft 244 kts 120°
2026-04-28 21:54 41.90957 44.64932 6998 ft 230 kts 139°
2026-04-28 21:54 41.89778 44.66255 6982 ft 212 kts 140°
2026-04-28 21:54 41.88694 44.67463 6988 ft 191 kts 139°
2026-04-28 21:55 41.87741 44.68581 6912 ft 174 kts 137°
2026-04-28 21:55 41.86904 44.69615 6852 ft 153 kts 135°
2026-04-28 21:55 41.86174 44.70553 6747 ft 139 kts 134°
2026-04-28 21:55 41.85499 44.71434 6559 ft 134 kts 134°
2026-04-28 21:56 41.84835 44.72300 6314 ft 133 kts 134°
2026-04-28 21:56 41.84170 44.73165 6024 ft 133 kts 135°
2026-04-28 21:56 41.83504 44.74024 5749 ft 132 kts 135°
2026-04-28 21:56 41.82855 44.74856 5587 ft 127 kts 135°
2026-04-28 21:57 41.82190 44.75707 5426 ft 134 kts 135°
2026-04-28 21:57 41.81528 44.76555 5277 ft 131 kts 135°
2026-04-28 21:57 41.80873 44.77390 5310 ft 132 kts 135°
2026-04-28 21:57 41.80206 44.78239 5308 ft 132 kts 135°
2026-04-28 21:58 41.79537 44.79089 5292 ft 133 kts 134°
2026-04-28 21:58 41.78868 44.79941 5187 ft 130 kts 135°
2026-04-28 21:58 41.78216 44.80771 4959 ft 130 kts 134°
2026-04-28 21:58 41.77543 44.81629 4537 ft 139 kts 134°
2026-04-28 21:59 41.76817 44.82556 4080 ft 147 kts 134°
2026-04-28 21:59 41.76113 44.83449 3970 ft 126 kts 135°
2026-04-28 21:59 41.75478 44.84252 4009 ft 131 kts 134°
2026-04-28 22:00 41.74180 44.85900 3990 ft 128 kts 134°
2026-04-28 22:00 41.73512 44.86683 3977 ft 129 kts 137°
2026-04-28 22:00 41.72817 44.87464 3743 ft 129 kts 136°
2026-04-28 22:00 41.72156 44.88269 3424 ft 129 kts 135°
2026-04-28 22:01 41.71514 44.89075 3119 ft 127 kts 134°
2026-04-28 22:01 41.70831 44.89960 2823 ft 139 kts 134°
2026-04-28 22:01 41.70156 44.90882 2470 ft 136 kts 131°
2026-04-28 22:01 41.69536 44.91776 2213 ft 127 kts 130°
2026-04-28 22:02 41.68941 44.92623 1974 ft 125 kts 130°
2026-04-28 22:02 41.68355 44.93457 1746 ft 121 kts 130°
2026-04-28 22:02 41.67781 44.94271 1624 ft 120 kts 130°
2026-04-28 22:02 41.67227 44.95066 1557 ft 113 kts 130°
2026-04-28 22:03 41.66812 44.95653 1554 ft 63 kts 134°
2026-04-28 22:03 41.66573 44.95983 1555 ft 44 kts 135°
2026-04-28 22:03 41.66409 44.96200 1555 ft 22 kts 136°
2026-04-28 22:03 41.66356 44.96324 1555 ft 8 kts 49°
2026-04-28 22:04 41.66398 44.96332 1554 ft 0 kts 11°
2026-04-28 22:04 41.66419 44.96343 1553 ft 7 kts 20°
2026-04-28 22:04 41.66493 44.96367 1552 ft 14 kts 13°
2026-04-28 22:05 41.66608 44.96403 1551 ft 19 kts 13°
2026-04-28 22:05 41.66728 44.96418 1550 ft 9 kts 327°
2026-04-28 22:05 41.66758 44.96360 1551 ft 7 kts 311°
2026-04-28 22:05 41.66797 44.96323 1551 ft 7 kts 356°
2026-04-28 22:06 41.66847 44.96369 1551 ft 11 kts 44°
2026-04-28 22:06 41.66855 44.96380 1551 ft 1 kts 44°
2026-04-28 22:06 41.66857 44.96383 1551 ft 0 kts 44°